Weather History for Crane Lake, MN

Change the Weather History Date:

Thursday, January 3, 2013

  Actual Average Record
Temperature  
Mean Temperature 12 °F -  
Max Temperature 19 °F 15 °F 39 °F (2007)
Min Temperature 5 °F 0 °F -29 °F (2014)
Degree Days  
Heating Degree Days 53    
Moisture  
Dew Point 9 °F    
Average Humidity 85    
Maximum Humidity 100    
Minimum Humidity 63    
Precipitation  
Precipitation 0.00 in - - ()
Sea Level Pressure  
Sea Level Pressure 29.99 in    
Wind  
Wind Speed 6 mph (WSW)    
Max Wind Speed 14 mph    
Max Gust Speed 23 mph    
Visibility 8 miles    
Events Snow    
Averages and records for this station are not official NWS values.
T = Trace of Precipitation, MM = Missing Value Source: NWS Daily Summary

Daily Weather History Graph

Daily Weather History Graph

Search for Another Location

Airport:

Trip Planner

Search our weather history database for the weather conditions in past years. The results will help you decide how hot, cold, wet, or windy it might be!

Date:

Astronomy

Jan. 03, 2013 Rise Set
Actual Time 8:00 AM CST 4:28 PM CST
Civil Twilight 7:24 AM CST 5:05 PM CST
Nautical Twilight 6:44 AM CST 5:44 PM CST
Astronomical Twilight 6:07 AM CST 6:22 PM CST
Moon 11:39 PM CST (1/3) 10:41 AM CST (1/3)
Length of Visible Light 9h 40m
Length of Day
8h 28m
Waning Gibbous, 65% of the Moon is Illuminated
Jan 3
Waning Gibbous
Jan 4
Last Quarter
Jan 11
New
Jan 18
First Quarter
Jan 26
Full

Hourly Weather History & Observations

Time (CST) Temp. Windchill Dew Point Humidity Pressure Visibility Wind Dir Wind Speed Gust Speed Precip Events Conditions
12:02 AM 15.8 °F 5.1 °F 15.8 °F 100% 30.03 in 10.0 mi NNW 8.1 mph - N/A Snow Light Snow
12:22 AM 15.8 °F 8.6 °F 14.0 °F 93% 30.03 in 10.0 mi North 4.6 mph - N/A Snow Light Snow
12:42 AM 15.8 °F 7.2 °F 12.2 °F 86% 30.04 in 7.0 mi North 5.8 mph - N/A Snow Light Snow
1:02 AM 15.8 °F 4.2 °F 12.2 °F 86% 30.05 in 5.0 mi NNW 9.2 mph - N/A Snow Light Snow
1:22 AM 12.2 °F -0.2 °F 10.4 °F 92% 30.06 in 5.0 mi NW 9.2 mph - N/A Snow Light Snow
1:42 AM 12.2 °F 1.7 °F 10.4 °F 92% 30.06 in 5.0 mi NNW 6.9 mph 16.1 mph N/A Snow Light Snow
2:02 AM 10.4 °F -1.5 °F 8.6 °F 92% 30.08 in 7.0 mi NW 8.1 mph - N/A Snow Light Snow
2:22 AM 10.4 °F -3.3 °F 8.6 °F 92% 30.09 in 10.0 mi NW 10.4 mph - N/A Snow Light Snow
2:42 AM 8.6 °F -4.7 °F 6.8 °F 92% 30.09 in 5.0 mi NNW 9.2 mph - N/A Snow Light Snow
3:02 AM 8.6 °F -3.7 °F 6.8 °F 92% 30.10 in 10.0 mi NW 8.1 mph - N/A Snow Light Snow
3:22 AM 8.6 °F -1.3 °F 6.8 °F 92% 30.11 in 4.0 mi NNW 5.8 mph - N/A Snow Light Snow
3:42 AM 8.6 °F 2.0 °F 6.8 °F 92% 30.10 in 3.0 mi NW 3.5 mph - N/A Snow Light Snow
4:02 AM 8.6 °F 0.1 °F 6.8 °F 92% 30.10 in 3.0 mi NNW 4.6 mph - N/A Snow Light Snow
4:22 AM 8.6 °F 0.1 °F 6.8 °F 92% 30.10 in 3.0 mi NW 4.6 mph - N/A Snow Light Snow
4:42 AM 8.6 °F -2.6 °F 6.8 °F 92% 30.11 in 3.0 mi NW 6.9 mph - N/A Snow Light Snow
5:02 AM 10.4 °F 2.2 °F 8.6 °F 92% 30.11 in 2.5 mi NW 4.6 mph - N/A Snow Light Snow
5:22 AM 8.6 °F -4.7 °F 6.8 °F 92% 30.12 in 4.0 mi NNW 9.2 mph - N/A Snow Light Snow
5:42 AM 8.6 °F -2.6 °F 6.8 °F 92% 30.13 in 3.0 mi NW 6.9 mph - N/A Snow Light Snow
6:02 AM 8.6 °F - 6.8 °F 92% 30.13 in 2.5 mi Calm Calm - N/A Snow Light Snow
6:22 AM 8.6 °F 2.0 °F 6.8 °F 92% 30.13 in 1.2 mi West 3.5 mph - N/A Snow Light Snow
6:42 AM 8.6 °F 2.0 °F 6.8 °F 92% 30.13 in 5.0 mi WNW 3.5 mph - N/A Snow Light Snow
7:02 AM 8.6 °F - 6.8 °F 92% 30.13 in 7.0 mi Calm Calm - N/A Snow Light Snow
7:22 AM 6.8 °F - 5.0 °F 92% 30.13 in 4.0 mi Calm Calm - N/A Snow Light Snow
7:42 AM 6.8 °F - 3.2 °F 85% 30.13 in 2.5 mi Calm Calm - N/A Snow Light Snow
8:02 AM 6.8 °F -0.1 °F 3.2 °F 85% 30.13 in 10.0 mi West 3.5 mph - N/A Snow Light Snow
8:22 AM 5.0 °F - 1.4 °F 85% 30.13 in 5.0 mi Calm Calm - N/A Snow Light Snow
8:42 AM 5.0 °F - 1.4 °F 85% 30.12 in 7.0 mi Calm Calm - N/A Snow Light Snow
9:22 AM 6.8 °F -2.0 °F 3.2 °F 85% 30.11 in 10.0 mi SW 4.6 mph - N/A   Scattered Clouds
9:42 AM 6.8 °F -3.5 °F 5.0 °F 92% 30.12 in 10.0 mi WSW 5.8 mph - N/A   Clear
10:02 AM 10.4 °F 0.8 °F 8.6 °F 92% 30.11 in 10.0 mi WSW 5.8 mph - N/A Snow Light Snow
10:22 AM 12.2 °F - 10.4 °F 92% 30.11 in 10.0 mi Calm Calm - N/A   Clear
10:42 AM 14.0 °F 5.1 °F 10.4 °F 86% 30.10 in 10.0 mi South 5.8 mph - N/A   Clear
11:02 AM 15.8 °F 6.1 °F 10.4 °F 79% 30.09 in 10.0 mi WSW 6.9 mph - N/A   Clear
11:22 AM 15.8 °F 8.6 °F 8.6 °F 73% 30.07 in 10.0 mi West 4.6 mph - N/A   Clear
11:42 AM 17.6 °F 9.3 °F 8.6 °F 68% 30.05 in 10.0 mi SSW 5.8 mph - N/A   Clear
12:02 PM 17.6 °F 8.2 °F 6.8 °F 63% 30.04 in 10.0 mi SW 6.9 mph - N/A   Clear
12:22 PM 17.6 °F 10.7 °F 6.8 °F 63% 30.02 in 10.0 mi SSW 4.6 mph - N/A   Clear
12:42 PM 17.6 °F 6.4 °F 6.8 °F 63% 30.01 in 10.0 mi South 9.2 mph - N/A   Clear
1:22 PM 19.4 °F 10.4 °F 8.6 °F 63% 29.99 in 10.0 mi SSW 6.9 mph - N/A   Clear
1:42 PM 19.4 °F 10.4 °F 10.4 °F 68% 29.98 in 10.0 mi SW 6.9 mph - N/A   Clear
2:02 PM 19.4 °F 9.5 °F 8.6 °F 63% 29.98 in 10.0 mi SW 8.1 mph - N/A   Clear
2:22 PM 19.4 °F 9.5 °F 10.4 °F 68% 29.97 in 10.0 mi SW 8.1 mph - N/A   Clear
2:42 PM 19.4 °F 10.4 °F 10.4 °F 68% 29.97 in 10.0 mi SSW 6.9 mph - N/A   Scattered Clouds
3:02 PM 17.6 °F 8.2 °F 10.4 °F 73% 29.96 in 10.0 mi SSW 6.9 mph - N/A   Clear
3:22 PM 17.6 °F 8.2 °F 10.4 °F 73% 29.95 in 10.0 mi SW 6.9 mph - N/A   Clear
3:42 PM 15.8 °F 5.1 °F 8.6 °F 73% 29.94 in 10.0 mi SSW 8.1 mph 16.1 mph N/A   Clear
4:02 PM 14.0 °F 5.1 °F 8.6 °F 79% 29.92 in 10.0 mi SSW 5.8 mph - N/A   Clear
4:22 PM 12.2 °F 0.7 °F 8.6 °F 85% 29.91 in 10.0 mi South 8.1 mph - N/A   Clear
4:42 PM 12.2 °F 0.7 °F 8.6 °F 85% 29.91 in 10.0 mi SSW 8.1 mph - N/A   Clear
5:02 PM 12.2 °F 1.7 °F 8.6 °F 85% 29.89 in 10.0 mi SSW 6.9 mph 17.3 mph N/A   Clear
5:22 PM 12.2 °F 1.7 °F 8.6 °F 85% 29.88 in 10.0 mi South 6.9 mph 16.1 mph N/A   Clear
5:42 PM 12.2 °F -1.8 °F 10.4 °F 92% 29.86 in 10.0 mi South 11.5 mph 16.1 mph N/A   Clear
6:02 PM 12.2 °F 0.7 °F 10.4 °F 92% 29.84 in 10.0 mi South 8.1 mph 18.4 mph N/A   Clear
6:22 PM 14.0 °F 2.0 °F 10.4 °F 86% 29.81 in 10.0 mi South 9.2 mph 18.4 mph N/A   Clear
6:42 PM 14.0 °F 0.5 °F 10.4 °F 86% 29.80 in 10.0 mi South 11.5 mph 23.0 mph N/A   Clear
7:02 PM 14.0 °F -0.8 °F 10.4 °F 86% 29.79 in 10.0 mi SSW 13.8 mph 19.6 mph N/A   Clear
7:22 PM 14.0 °F 3.9 °F 10.4 °F 86% 29.80 in 10.0 mi SW 6.9 mph - N/A   Clear
7:41 PM 14.0 °F 8.2 °F 10.4 °F 86% 29.82 in 10.0 mi SW 3.5 mph - N/A   Clear
8:02 PM 14.0 °F 2.0 °F 10.4 °F 86% 29.80 in 10.0 mi SSW 9.2 mph - N/A   Clear
8:21 PM 14.0 °F 6.5 °F 10.4 °F 86% 29.80 in 10.0 mi SSW 4.6 mph - N/A   Clear
8:42 PM 14.0 °F 8.2 °F 10.4 °F 86% 29.81 in 10.0 mi SSW 3.5 mph - N/A   Clear
9:02 PM 14.0 °F 8.2 °F 10.4 °F 86% 29.81 in 10.0 mi SW 3.5 mph - N/A   Clear
9:22 PM 12.2 °F - 8.6 °F 85% 29.81 in 10.0 mi Calm Calm - N/A   Clear
9:42 PM 12.2 °F - 8.6 °F 85% 29.82 in 10.0 mi Calm Calm - N/A   Clear
10:02 PM 12.2 °F - 8.6 °F 85% 29.81 in 10.0 mi Calm Calm - N/A   Clear
10:22 PM 14.0 °F 6.5 °F 12.2 °F 93% 29.81 in 10.0 mi South 4.6 mph - N/A   Clear
10:42 PM 14.0 °F 6.5 °F 12.2 °F 93% 29.81 in 10.0 mi SSW 4.6 mph - N/A   Clear
11:02 PM 14.0 °F 8.2 °F 12.2 °F 93% 29.81 in 10.0 mi South 3.5 mph - N/A   Clear
11:22 PM 14.0 °F - 10.4 °F 86% 29.82 in 10.0 mi Calm Calm - N/A   Clear
11:42 PM 12.2 °F 6.1 °F 10.4 °F 92% 29.82 in 10.0 mi SW 3.5 mph - N/A   Clear